Moline, IL
on Tuesday, October 8, 2013

Tuesday
Previous Day Next Day
Daily Summary
 ActualAverageRecord
Temperature
Mean Temperature °F 56°F  
Max Temperature 78°F 67°F 87°F (1949)
Min Temperature 42°F 45°F 25°F (1952)
Degree Days
Heating Degree Days 5 10  
Month to date heating degree days 31 69  
Since 1 July heating degree days 109 173  
Cooling Degree Days 0 1  
Month to date cooling degree days 27 8  
Year to date cooling degree days 998 997  
Growing Degree Days10 (Base °F )  
Moisture
Dew Point 44°F   
Average Humidity 65    
Maximum Humidity 100    
Minimum Humidity 29    
Precipitation
Precipitation 0.00 in 0.10 in 0.76 in (2004)
Month to date precipitation 0.83 0.75  
Year to date precipitation 34.40 31.00  
Snow
Snow 0.00 in 0.00 in in ()
Month to date snowfall 0.0 0.0  
Since 1 July snowfall 0.0 0.0  
Since 1 September snowfall 0.0 0.0  
Snow Depth 0.00 in   
Wind
Wind Speed 4 mph   
Max Wind Speed 15 mph   
Max Gust Speed 20 mph   
Visibility 10 miles   
Events     

Key: T is trace of precipitation, MM is missing value
Source: NWS Daily Summary
Time(CDT)TemperatureDew PointHumidity Pressure Visibility Wind DirectionWind SpeedGust SpeedPrecipitationEvents Conditions
12:52 AM 48.9°F 45.0°F 86% 30.09 in 10.0 miles Calm Calm - N/A   Clear
1:52 AM 46.9°F 44.1°F 90% 30.10 in 10.0 miles Calm Calm - N/A   Clear
2:52 AM 45.0°F 43.0°F 93% 30.11 in 10.0 miles Calm Calm - N/A   Clear
3:52 AM 44.1°F 42.1°F 93% 30.11 in 10.0 miles Calm Calm - N/A   Clear
4:52 AM 44.1°F 42.1°F 93% 30.12 in 10.0 miles Calm Calm - N/A   Clear
5:52 AM 43.0°F 42.1°F 97% 30.13 in 10.0 miles Calm Calm - N/A   Clear
6:52 AM 42.1°F 39.9°F 92% 30.14 in 10.0 miles Calm Calm - N/A   Clear
7:52 AM 45.0°F 43.0°F 93% 30.15 in 10.0 miles East 3.5 mph - N/A   Clear
8:52 AM 54.0°F 46.9°F 77% 30.16 in 10.0 miles Calm Calm - N/A   Clear
9:52 AM 63.0°F 48.9°F 60% 30.17 in 10.0 miles SSW 3.5 mph - N/A   Clear
10:52 AM 68.0°F 48.0°F 49% 30.16 in 10.0 miles South 4.6 mph - N/A   Clear
11:52 AM 71.1°F 46.9°F 42% 30.15 in 10.0 miles SSW 6.9 mph - N/A   Clear
12:52 PM 75.0°F 45.0°F 34% 30.13 in 10.0 miles South 9.2 mph - N/A   Clear
1:52 PM 75.9°F 43.0°F 31% 30.10 in 10.0 miles SSW 4.6 mph - N/A   Clear
2:52 PM 77.0°F 42.1°F 29% 30.09 in 10.0 miles SSW 9.2 mph - N/A   Clear
3:52 PM 77.0°F 43.0°F 30% 30.08 in 10.0 miles SSW 11.5 mph 18.4 mph N/A   Clear
4:52 PM 75.9°F 43.0°F 31% 30.08 in 10.0 miles South 8.1 mph 16.1 mph N/A   Clear
5:52 PM 72.0°F 45.0°F 38% 30.09 in 10.0 miles SSE 5.8 mph - N/A   Clear
6:52 PM 64.9°F 46.0°F 50% 30.10 in 10.0 miles SSE 5.8 mph - N/A   Clear
7:52 PM 62.1°F 46.0°F 56% 30.10 in 10.0 miles SSE 6.9 mph - N/A   Clear
8:52 PM 61.0°F 46.0°F 58% 30.10 in 10.0 miles SSE 6.9 mph - N/A   Clear
9:52 PM 61.0°F 46.0°F 58% 30.11 in 10.0 miles SSE 5.8 mph - N/A   Clear
10:52 PM 55.9°F 46.0°F 69% 30.12 in 10.0 miles ESE 3.5 mph - N/A   Clear
11:52 PM 52.0°F 46.0°F 80% 30.12 in 10.0 miles East 4.6 mph - N/A   Clear
Astronomy
Sunrise:07:06 AM (CDT) Moon Rise:11:03 AM (CDT)10/8
Sunset:06:31 PM (CDT) Moon Set:09:05 PM (CDT)10/8
Moon Phase
Oct. 08 Oct. 11 Oct. 18 Oct. 26 Nov. 03

Copyright © 2017 The Weather Underground, Inc.















  Today is Tuesday, Nov. 22, the 327th day of 2016. There are 39 days left in the year.
1866 -- 150 years ago: Free luncheon is served at Phil Hein's Saloon every morning at 10 o'clock.
1891 -- 125 years ago: Bige Bickford was injured as he was coupling cars in the Rock Island Lines yard.
1916 -- 100 years ago: Clarence Granlund was elected president of the Lyceum at Augustana College.
1941 -- 75 years ago: Alice Schall, teacher at Grant School, supervised packing of Thanksgiving boxes for needy families.
1966 -- 50 years ago: The Rev. Lowell Campbell, pastor of the Milan Presbyterian Church, led the members of the congregation in a ground-breaking ceremony yesterday at the site of the new church one mile south of Andalusia Road on U.S. 67. The building will cost $285,000 and will be completed next fall.
1991 -- 25 years ago: Construction of a 200-room, $13.5 million hotel on the east end of the Moline civic center site will begin next spring, according to an agreement that was to be considered this morning by the Quad City Civic Center Authority.